TimeEST,TemperatureF,Dew PointF,Humidity,Sea Level PressureIn,VisibilityMPH,Wind Direction,Wind SpeedMPH,Gust SpeedMPH,PrecipitationIn,Events,Conditions,WindDirDegrees,DateUTC
12:54 AM,37.9,28.9,70,30.40,10.0,North,8.1,-,N/A,,Overcast,10,2012-11-15 05:54:00
1:54 AM,37.0,28.9,73,30.41,10.0,NNW,6.9,-,N/A,,Overcast,340,2012-11-15 06:54:00
2:54 AM,39.0,28.9,67,30.41,10.0,North,6.9,-,N/A,,Overcast,360,2012-11-15 07:54:00
3:54 AM,39.0,28.9,67,30.40,10.0,North,6.9,-,N/A,,Overcast,10,2012-11-15 08:54:00
4:54 AM,39.0,28.9,67,30.40,10.0,North,6.9,-,N/A,,Overcast,10,2012-11-15 09:54:00
5:54 AM,39.0,30.0,70,30.40,10.0,North,8.1,-,N/A,,Overcast,10,2012-11-15 10:54:00
6:54 AM,39.9,30.0,68,30.40,10.0,North,8.1,-,N/A,,Overcast,10,2012-11-15 11:54:00
7:54 AM,39.0,30.0,70,30.40,10.0,North,9.2,-,N/A,,Mostly Cloudy,10,2012-11-15 12:54:00
8:54 AM,43.0,32.0,65,30.40,10.0,NNE,12.7,-,N/A,,Clear,20,2012-11-15 13:54:00
9:54 AM,45.0,33.1,63,30.41,10.0,NE,11.5,-,N/A,,Mostly Cloudy,40,2012-11-15 14:54:00
10:54 AM,46.0,33.1,61,30.39,10.0,NNE,13.8,19.6,N/A,,Overcast,30,2012-11-15 15:54:00
11:54 AM,46.9,33.1,59,30.37,10.0,NNE,11.5,-,N/A,,Clear,30,2012-11-15 16:54:00
12:54 PM,45.0,33.1,63,30.35,10.0,NE,11.5,-,N/A,,Overcast,40,2012-11-15 17:54:00
1:54 PM,45.0,33.1,63,30.35,10.0,North,10.4,-,N/A,,Overcast,10,2012-11-15 18:54:00
2:54 PM,46.0,32.0,58,30.33,10.0,NNE,8.1,-,N/A,,Overcast,20,2012-11-15 19:54:00
3:54 PM,45.0,30.9,58,30.34,10.0,NNE,8.1,-,N/A,,Overcast,20,2012-11-15 20:54:00
4:54 PM,43.0,30.9,62,30.33,10.0,NNE,6.9,-,N/A,,Overcast,30,2012-11-15 21:54:00
5:54 PM,42.1,32.0,67,30.34,10.0,NE,5.8,-,N/A,,Overcast,50,2012-11-15 22:54:00
6:54 PM,41.0,30.9,67,30.33,10.0,NNE,8.1,-,N/A,,Overcast,20,2012-11-15 23:54:00
7:54 PM,39.9,30.9,70,30.33,10.0,NNE,4.6,-,N/A,,Clear,20,2012-11-16 00:54:00
8:54 PM,39.0,30.9,73,30.32,10.0,NNE,4.6,-,N/A,,Clear,20,2012-11-16 01:54:00
9:54 PM,37.9,30.9,76,30.31,10.0,North,3.5,-,N/A,,Clear,10,2012-11-16 02:54:00
10:54 PM,37.9,30.9,76,30.30,10.0,North,5.8,-,N/A,,Clear,10,2012-11-16 03:54:00
11:54 PM,37.9,30.9,76,30.29,10.0,NNW,3.5,-,N/A,,Clear,340,2012-11-16 04:54:00